www.pogodaiklimat.ru
Время
и дата
13:53 04.10
14:53 04.10
15:53 04.10
16:53 04.10
17:53 04.10
18:53 04.10
19:53 04.10
20:53 04.10
21:53 04.10
22:40 04.10
22:53 04.10
23:06 04.10
23:53 04.10
00:53 05.10
01:02 05.10
01:36 05.10
01:53 05.10
02:53 05.10
03:21 05.10
03:53 05.10
04:53 05.10
05:53 05.10
06:53 05.10
07:53 05.10
08:53 05.10
09:53 05.10
10:53 05.10
11:53 05.10
12:53 05.10
13:25 05.10
13:53 05.10
14:53 05.10
15:53 05.10
16:14 05.10
16:53 05.10
17:20 05.10
17:53 05.10
18:53 05.10
19:45 05.10
19:53 05.10
20:51 05.10
20:53 05.10
21:53 05.10
22:48 05.10
22:49 05.10
23:53 05.10
00:53 06.10
01:53 06.10
Ветер
(напр.,м/с)
Видим. Явления Облачность Т
(С)
Тd
(С)
f
(%)
Тe
(С)
Тes
(С)
Комфортность P
(гПа)
Po
(гПа)
Тmin
(С)
Tmax
(С)
R
(мм)
R24
(мм)
S
(см)
Ю 3 16 км ясно +23.3 +15.6 62 +28 +38 душно 1012.2 1011.7
ЮЗ 3 16 км ясно +23.9 +15.0 57 +27 +35 жарко 1011.8 1011.4
Ю 3 16 км ясно +23.3 +14.4 57 +27 +32 душно 1011.5 1011.0 +21.1 +23.9
ЮВ 3 14 км ясно +20.6 +15.6 73 +24 +26 комфорт 1011.3 1010.7
ЮВ 2 13 км ясно +18.3 +16.1 87 +19 +20 1011.5 1011.0
В 2 13 км ясно +18.3 +16.1 87 +19 +19 1011.6 1011.4
В 2 13 км ясно +18.3 +16.1 87 +19 +19 1012.1 1011.7
В 3 11 км ясно +18.3 +16.7 90 +19 +19 1012.2 1011.7
В 3 11 км ясно +18.3 +16.1 87 +19 +19 1012.8 1012.4 +18.3 +23.3
В 3 11 км 2/2 210 м +17.8 +16.1 90 +18 +18 1012.7
В 3 11 км 5/5 210 м +17.8 +16.1 90 +18 +18 1013.3 1012.7
В 3 11 км 8/8 210 м +17.8 +16.1 90 +18 +18 1013.1
ЮВ 3 11 км 10/10 180 м +17.2 +16.1 93 +17 +17 1014.0 1013.7
ЮВ 2 8 км дымка 8/8 150 м +16.7 +15.6 93 +17 +17 1014.2 1013.7
ЮВ 2 8 км дымка 5/5 150 м +16.1 +15.0 93 +16 +16 1013.7
ЮВ 3 8 км дымка 8/8 120 м +16.7 +15.6 93 +16 +16 1013.7
ЮВ 2 6 км дымка 10/10 120 м +16.7 +16.1 96 +17 +17 1014.3 1013.7
ЮВ 2 6 км дымка 10/10 90 м +16.7 +16.1 96 +17 +17 1014.0 1013.7
штиль 0 6 км дымка 10/10 150 м +17.2 +16.1 93 +17 +17 1013.4
С 2 6 км дымка 10/10 180 м +17.2 +16.1 93 +18 +18 1014.0 1013.4 +16.1 +18.3
СВ 2 10 км дымка 10/10 180 м +17.8 +16.1 90 +18 +18 1014.1 1013.7
С 3 11 км 10/10 270 м +17.8 +16.1 90 +18 +18 1014.6 1014.1
С 2 8 км дымка 10/10 240 м +18.3 +16.7 90 +19 +19 1015.0 1014.4
штиль 0 8 км мгла 10/10 210 м +19.4 +16.7 84 +21 +21 комфорт 1015.6 1015.1
ЮВ 3 8 км мгла 8/8 240 м +20.6 +16.7 78 +24 +25 комфорт 1015.7 1015.4
ЮЗ 3 10 км мгла 5/5 240 м +21.7 +16.7 73 +26 +28 душно 1015.9 1015.4 +17.2 +21.7
Ю 4 10 км мгла 5/5 450 м +22.2 +16.7 71 +27 +30 душно 1015.6 1015.1
ЮЗ 5 13 км 5/5 450 м +20.6 +16.7 78 +24 +27 комфорт 1014.9 1014.4
ЮЗ 4 10 км мгла 5/5 300 м +20.6 +16.1 75 +24 +28 комфорт 1014.4 1014.1
ЮЗ 5 10 км мгла 8/8 180 м +19.4 +16.1 81 +21 +22 комфорт 1013.7
З 6 10 км мгла 8/8 180 м +18.9 +15.6 81 +20 +21 1014.0 1013.7
З 4 10 км мгла 8/8 180 м +17.8 +15.0 84 +18 +19 1013.7 1013.4
ЮЗ 4 10 км мгла 5/5 120 м +17.2 +15.0 87 +17 +19 1013.2 1012.7 +17.2 +26.7
З 4 10 км мгла 8/8 120 м +16.7 +15.0 90 +16 +17 1012.7
ЮЗ 4 10 км дымка 10/10 120 м +16.7 +15.0 90 +16 +16 1013.2 1012.7
ЮЗ 3 3 км дымка 10/10 90 м +16.1 +15.0 93 +16 +16 1013.1
штиль 0 3 км дымка 10/10 60 м +16.1 +15.0 93 +16 +16 1013.5 1013.1
штиль 0 3 км дымка 10/10 90 м +16.1 +15.0 93 +16 +16 1013.8 1013.4
В 2 800 м туман 10/10 60 м +15.6 +15.0 96 +15 +15 1013.7
штиль 0 400 м туман 10/10 60 м +15.6 +15.0 96 +15 +15 1014.2 1013.7
В 2 2 км дымка ?/? +16.0 +16.0 100 +16 +16 1014.1
В 3 400 м туман ?/? +16.1 +15.6 97 +16 +16 1014.4 1014.1
В 3 3 км дымка 10/10 60 м +16.1 +15.6 97 +16 +16 1014.8 1014.4 +15.6 +17.2
В 4 5 км дымка 10/10 60 м +16.0 +16.0 100 +15 +15 1014.8
В 4 5 км дымка 10/10 60 м +16.1 +15.6 97 +15 +15 1015.2 1014.8
В 3 6 км дымка 10/10 90 м +16.7 +15.6 93 +16 +16 1016.0 1015.4
В 3 8 км дымка 10/10 90 м +16.7 +16.1 96 +16 +16 1016.0 1015.4
В 3 6 км дымка 10/10 90 м +16.7 +16.1 96 +16 +16 1016.1 1015.8
Местоположение метеостанции Santa Barbara Municipal Airport: широта 34.4258 долгота -119.8425 высота над уровнем моря 3 м.
В архиве по умолчанию представлена погода в Санта-Барбаре за последние 1-2 суток. Обновление информации о фактической погоде в базе происходит ежечасно! Архивные данные за месяц целиком и за предыдущие месяцы Вы можете получить, выбрав интересующий диапазон дат из раскрывающегося списка и нажав кнопку "Ввод!".
Внимание! Архив погоды МЕТАР в базе сайта по станциям, не включенным в климатический монитор, хранится не более 60 дней. Нет смысла пытаться выбрать более раннюю дату.
*Определитесь, кто Вы:
Внимание! Время в таблицах - местное (без учета летнего времени). Для получения всемирного времени необходимо вычесть поправку, которая равна -8 ч.
Смотрите также архив погоды в соседних городах и на ближайших метеорологических станциях:
Партнеры нашего сайта:      
Пояснения к столбцам:
  • Ветер - указаны скорость ветра в м/с - средняя за 10 мин, порывы в срок и между сроками (в фигурных скобках) и направление, откуда дует ветер: С - северный,
  • СВ - северо-восточный, В - восточный, ЮВ - юго-восточный, Ю - южный, ЮЗ - юго-западный, З - западный, СЗ - северо-западный.
  • Видимость - горизонтальная дальность видимости в метрах или километрах. При видимости от 1 до 10 км при отсутствии осадков обычно наблюдается дымка, при ухудшении видимости до 1 км и менее - туман. В сухую погоду видимость может ухудшаться дымом, пылью или мглою.
  • Явления - указаны атмосферные явления, наблюдавшиеся в срок или в последний час перед сроком; фигурными скобками обозначены явления, наблюдавшиеся между сроками (за 1-3 часа до срока); квадратными скобками обозначены град или гололедные отложения с указанием их диаметра в мм.
  • Облачность - указаны через наклонную черту общая и нижняя облачность в баллах и высота нижней границы облаков в метрах; квадратными скобками обозначены формы облаков: Ci - перистые, Cs - перисто-слоистые, Cc - перисто-кучевые, Ac - высококучевые, As - высокослоистые, Sc - слоисто-кучевые, Ns - слоисто-дождевые, Cu - кучевые, Cb - кучево-дождевые. Подробнее классификацию облаков см. в Атласе облаков (PDF).
  • T - Температура воздуха - температура, измеренная на высоте 2 м над землей.
  • Td - Температура точки росы - температура, при понижении до которой содержащийся в воздухе водяной пар достигнет насыщения.
  • f - Относительная влажность воздуха - влажноcть воздуха, измеренная на высоте 2 м над землей.
  • Te - Эффективная температура - температура, которую ощущает одетый по сезону человек в тени. Характеристика душности погоды. При расчете учитывается влияние влажности воздуха и скорости ветра на теплоощущения человека.
  • Tes - Эффективная температура на солнце - температура, которую ощущает человек, с поправкой на солнечный нагрев. Характеристика знойности погоды. Зависит от высоты солнца над горизонтом, облачности и скорости ветра. Ночью, в пасмурную погоду, а также при ветре 12 м/с и более поправка равна нулю.
  • P - Атмосферное давление - приведенное к уровню моря атмосферное давление.
  • Po - Атмосферное давление - измеренное на уровне метеостанции атмосферное давление.
  • Tmin - Минимальная температура - минимум температуры воздуха на высоте 2 м над землей.
  • Tmax - Максимальная температура - максимум температуры воздуха на высоте 2 м над землей.
  • R - Количество осадков - Количество выпавших осадков за период времени, мм. При наведении курсора мыши на число - период времени, за который выпало указанное количество осадков.
  • R24 - Количество осадков - Количество выпавших осадков за 24 часа, мм.
  • S - Снежный покров - Высота снежного покрова, см. При наведении курсора мыши на число - состояние снежного покрова и степень покрытия местности в баллах.